<?xml version="1.0" encoding="UTF-8" standalone="no" ?>
<gpx xmlns="http://www.topografix.com/GPX/1/1" xmlns:xsi="http://www.w3.org/2001/XMLSchema-instance" xsi:schemaLocation="http://www.topografix.com/GPX/1/1 http://www.topografix.com/GPX/1/1/gpx.xsd" version="1.1" creator="VisuGPX - https://www.visugpx.com">
  <metadata>
    <name>Juvinas,_les_Champeaux,_Moulin_de_la_Coste,_Labas </name>
    <desc><![CDATA[
<html dir="ltr"><head></head><body contenteditable="true">comment ...</body></html>]]></desc>
  </metadata>
  <trk>
    <name><![CDATA[Juvinas, les Champeaux, Moulin de la Coste, Labastide, 12 km]]></name>
    <desc><![CDATA[<html dir="ltr"><head></head><body contenteditable="true">comment ...</body></html>]]></desc>
    <extensions>
      <line xmlns="http://www.topografix.com/GPX/gpx_style/0/2">
        <color>0000FF</color>
        <width>4</width>
      </line>
    </extensions>
    <trkseg>
      <trkpt lat="44.71061" lon="4.30606">
        <ele>658</ele>
        <time>2022-10-24T16:58:18Z</time>
      </trkpt>
      <trkpt lat="44.71029" lon="4.30607">
        <ele>655</ele>
        <time>2022-10-24T16:58:18Z</time>
      </trkpt>
      <trkpt lat="44.71008" lon="4.30609">
        <ele>652</ele>
        <time>2022-10-24T16:58:18Z</time>
      </trkpt>
      <trkpt lat="44.70988" lon="4.30606">
        <ele>650</ele>
        <time>2022-10-24T16:58:18Z</time>
      </trkpt>
      <trkpt lat="44.70942" lon="4.30599">
        <ele>646</ele>
        <time>2022-10-24T16:58:18Z</time>
      </trkpt>
      <trkpt lat="44.70926" lon="4.30606">
        <ele>645</ele>
        <time>2022-10-24T16:58:18Z</time>
      </trkpt>
      <trkpt lat="44.70916" lon="4.30599">
        <ele>643</ele>
        <time>2022-10-24T16:58:18Z</time>
      </trkpt>
      <trkpt lat="44.70911" lon="4.3059">
        <ele>643</ele>
        <time>2022-10-24T16:58:18Z</time>
      </trkpt>
      <trkpt lat="44.70898" lon="4.3055">
        <ele>642</ele>
        <time>2022-10-24T16:58:18Z</time>
      </trkpt>
      <trkpt lat="44.7089" lon="4.30546">
        <ele>639</ele>
        <time>2022-10-24T16:58:18Z</time>
      </trkpt>
      <trkpt lat="44.70881" lon="4.30548">
        <ele>642</ele>
        <time>2022-10-24T16:58:18Z</time>
      </trkpt>
      <trkpt lat="44.70867" lon="4.30558">
        <ele>648</ele>
        <time>2022-10-24T16:58:18Z</time>
      </trkpt>
      <trkpt lat="44.7086" lon="4.30564">
        <ele>651</ele>
        <time>2022-10-24T16:58:18Z</time>
      </trkpt>
      <trkpt lat="44.70847" lon="4.30596">
        <ele>655</ele>
        <time>2022-10-24T16:58:18Z</time>
      </trkpt>
      <trkpt lat="44.7084" lon="4.30643">
        <ele>653</ele>
        <time>2022-10-24T16:58:18Z</time>
      </trkpt>
      <trkpt lat="44.70833" lon="4.3066">
        <ele>653</ele>
        <time>2022-10-24T16:58:18Z</time>
      </trkpt>
      <trkpt lat="44.70814" lon="4.30673">
        <ele>655</ele>
        <time>2022-10-24T16:58:18Z</time>
      </trkpt>
      <trkpt lat="44.70804" lon="4.30692">
        <ele>653</ele>
        <time>2022-10-24T16:58:18Z</time>
      </trkpt>
      <trkpt lat="44.70804" lon="4.3072">
        <ele>657</ele>
        <time>2022-10-24T16:58:18Z</time>
      </trkpt>
      <trkpt lat="44.70811" lon="4.30759">
        <ele>664</ele>
        <time>2022-10-24T16:58:18Z</time>
      </trkpt>
      <trkpt lat="44.70813" lon="4.30806">
        <ele>672</ele>
        <time>2022-10-24T16:58:18Z</time>
      </trkpt>
      <trkpt lat="44.70805" lon="4.30851">
        <ele>676</ele>
        <time>2022-10-24T16:58:18Z</time>
      </trkpt>
      <trkpt lat="44.70753" lon="4.30914">
        <ele>688</ele>
        <time>2022-10-24T16:58:18Z</time>
      </trkpt>
      <trkpt lat="44.7074" lon="4.30938">
        <ele>686</ele>
        <time>2022-10-24T16:58:18Z</time>
      </trkpt>
      <trkpt lat="44.70745" lon="4.3097">
        <ele>682</ele>
        <time>2022-10-24T16:58:18Z</time>
      </trkpt>
      <trkpt lat="44.70762" lon="4.30999">
        <ele>684</ele>
        <time>2022-10-24T16:58:18Z</time>
      </trkpt>
      <trkpt lat="44.70774" lon="4.31032">
        <ele>686</ele>
        <time>2022-10-24T16:58:18Z</time>
      </trkpt>
      <trkpt lat="44.70771" lon="4.3106">
        <ele>691</ele>
        <time>2022-10-24T16:58:18Z</time>
      </trkpt>
      <trkpt lat="44.70756" lon="4.3109">
        <ele>698</ele>
        <time>2022-10-24T16:58:18Z</time>
      </trkpt>
      <trkpt lat="44.7074" lon="4.31124">
        <ele>700</ele>
        <time>2022-10-24T16:58:18Z</time>
      </trkpt>
      <trkpt lat="44.70733" lon="4.31165">
        <ele>702</ele>
        <time>2022-10-24T16:58:18Z</time>
      </trkpt>
      <trkpt lat="44.7073" lon="4.31227">
        <ele>708</ele>
        <time>2022-10-24T16:58:18Z</time>
      </trkpt>
      <trkpt lat="44.70732" lon="4.31266">
        <ele>711</ele>
        <time>2022-10-24T16:58:18Z</time>
      </trkpt>
      <trkpt lat="44.70721" lon="4.3132">
        <ele>710</ele>
        <time>2022-10-24T16:58:18Z</time>
      </trkpt>
      <trkpt lat="44.70699" lon="4.31366">
        <ele>709</ele>
        <time>2022-10-24T16:58:18Z</time>
      </trkpt>
      <trkpt lat="44.70669" lon="4.31394">
        <ele>722</ele>
        <time>2022-10-24T16:58:18Z</time>
      </trkpt>
      <trkpt lat="44.70641" lon="4.31535">
        <ele>723</ele>
        <time>2022-10-24T16:58:18Z</time>
      </trkpt>
      <trkpt lat="44.70633" lon="4.31552">
        <ele>723</ele>
        <time>2022-10-24T16:58:18Z</time>
      </trkpt>
      <trkpt lat="44.70623" lon="4.31562">
        <ele>723</ele>
        <time>2022-10-24T16:58:18Z</time>
      </trkpt>
      <trkpt lat="44.70606" lon="4.31571">
        <ele>723</ele>
        <time>2022-10-24T16:58:18Z</time>
      </trkpt>
      <trkpt lat="44.70596" lon="4.31569">
        <ele>723</ele>
        <time>2022-10-24T16:58:18Z</time>
      </trkpt>
      <trkpt lat="44.70576" lon="4.31554">
        <ele>723</ele>
        <time>2022-10-24T16:58:18Z</time>
      </trkpt>
      <trkpt lat="44.70566" lon="4.3155">
        <ele>723</ele>
        <time>2022-10-24T16:58:18Z</time>
      </trkpt>
      <trkpt lat="44.7048" lon="4.31476">
        <ele>723</ele>
        <time>2022-10-24T16:58:18Z</time>
      </trkpt>
      <trkpt lat="44.70472" lon="4.31476">
        <ele>723</ele>
        <time>2022-10-24T16:58:18Z</time>
      </trkpt>
      <trkpt lat="44.70451" lon="4.31463">
        <ele>714</ele>
        <time>2022-10-24T16:58:18Z</time>
      </trkpt>
      <trkpt lat="44.70439" lon="4.31457">
        <ele>712</ele>
        <time>2022-10-24T16:58:18Z</time>
      </trkpt>
      <trkpt lat="44.70437" lon="4.31432">
        <ele>715</ele>
        <time>2022-10-24T16:58:18Z</time>
      </trkpt>
      <trkpt lat="44.7043" lon="4.31415">
        <ele>713</ele>
        <time>2022-10-24T16:58:18Z</time>
      </trkpt>
      <trkpt lat="44.70405" lon="4.31378">
        <ele>707</ele>
        <time>2022-10-24T16:58:18Z</time>
      </trkpt>
      <trkpt lat="44.70384" lon="4.3134">
        <ele>700</ele>
        <time>2022-10-24T16:58:18Z</time>
      </trkpt>
      <trkpt lat="44.70361" lon="4.31288">
        <ele>697</ele>
        <time>2022-10-24T16:58:18Z</time>
      </trkpt>
      <trkpt lat="44.70349" lon="4.31293">
        <ele>705</ele>
        <time>2022-10-24T16:58:18Z</time>
      </trkpt>
      <trkpt lat="44.70342" lon="4.31355">
        <ele>701</ele>
        <time>2022-10-24T16:58:18Z</time>
      </trkpt>
      <trkpt lat="44.7033" lon="4.31358">
        <ele>706</ele>
        <time>2022-10-24T16:58:18Z</time>
      </trkpt>
      <trkpt lat="44.70305" lon="4.31393">
        <ele>703</ele>
        <time>2022-10-24T16:58:18Z</time>
      </trkpt>
      <trkpt lat="44.70302" lon="4.31405">
        <ele>703</ele>
        <time>2022-10-24T16:58:18Z</time>
      </trkpt>
      <trkpt lat="44.70305" lon="4.31419">
        <ele>701</ele>
        <time>2022-10-24T16:58:18Z</time>
      </trkpt>
      <trkpt lat="44.70308" lon="4.31431">
        <ele>699</ele>
        <time>2022-10-24T16:58:18Z</time>
      </trkpt>
      <trkpt lat="44.70306" lon="4.3147">
        <ele>698</ele>
        <time>2022-10-24T16:58:18Z</time>
      </trkpt>
      <trkpt lat="44.70296" lon="4.31522">
        <ele>694</ele>
        <time>2022-10-24T16:58:18Z</time>
      </trkpt>
      <trkpt lat="44.70319" lon="4.31586">
        <ele>695</ele>
        <time>2022-10-24T16:58:18Z</time>
      </trkpt>
      <trkpt lat="44.70335" lon="4.31624">
        <ele>695</ele>
        <time>2022-10-24T16:58:18Z</time>
      </trkpt>
      <trkpt lat="44.70336" lon="4.31639">
        <ele>695</ele>
        <time>2022-10-24T16:58:18Z</time>
      </trkpt>
      <trkpt lat="44.70325" lon="4.31668">
        <ele>695</ele>
        <time>2022-10-24T16:58:18Z</time>
      </trkpt>
      <trkpt lat="44.70306" lon="4.31692">
        <ele>694</ele>
        <time>2022-10-24T16:58:18Z</time>
      </trkpt>
      <trkpt lat="44.70297" lon="4.317">
        <ele>693</ele>
        <time>2022-10-24T16:58:18Z</time>
      </trkpt>
      <trkpt lat="44.70289" lon="4.31712">
        <ele>692</ele>
        <time>2022-10-24T16:58:18Z</time>
      </trkpt>
      <trkpt lat="44.70282" lon="4.31728">
        <ele>691</ele>
        <time>2022-10-24T16:58:18Z</time>
      </trkpt>
      <trkpt lat="44.7028" lon="4.31741">
        <ele>691</ele>
        <time>2022-10-24T16:58:18Z</time>
      </trkpt>
      <trkpt lat="44.70271" lon="4.31785">
        <ele>688</ele>
        <time>2022-10-24T16:58:18Z</time>
      </trkpt>
      <trkpt lat="44.70266" lon="4.31812">
        <ele>686</ele>
        <time>2022-10-24T16:58:18Z</time>
      </trkpt>
      <trkpt lat="44.70253" lon="4.31888">
        <ele>684</ele>
        <time>2022-10-24T16:58:18Z</time>
      </trkpt>
      <trkpt lat="44.70244" lon="4.31926">
        <ele>682</ele>
        <time>2022-10-24T16:58:18Z</time>
      </trkpt>
      <trkpt lat="44.70243" lon="4.31938">
        <ele>681</ele>
        <time>2022-10-24T16:58:18Z</time>
      </trkpt>
      <trkpt lat="44.70234" lon="4.31967">
        <ele>680</ele>
        <time>2022-10-24T16:58:18Z</time>
      </trkpt>
      <trkpt lat="44.70226" lon="4.31971">
        <ele>680</ele>
        <time>2022-10-24T16:58:18Z</time>
      </trkpt>
      <trkpt lat="44.70167" lon="4.31975">
        <ele>678</ele>
        <time>2022-10-24T16:58:18Z</time>
      </trkpt>
      <trkpt lat="44.7015" lon="4.31982">
        <ele>676</ele>
        <time>2022-10-24T16:58:18Z</time>
      </trkpt>
      <trkpt lat="44.70134" lon="4.31994">
        <ele>676</ele>
        <time>2022-10-24T16:58:18Z</time>
      </trkpt>
      <trkpt lat="44.70083" lon="4.32039">
        <ele>671</ele>
        <time>2022-10-24T16:58:18Z</time>
      </trkpt>
      <trkpt lat="44.70073" lon="4.32043">
        <ele>670</ele>
        <time>2022-10-24T16:58:18Z</time>
      </trkpt>
      <trkpt lat="44.70059" lon="4.3204">
        <ele>667</ele>
        <time>2022-10-24T16:58:18Z</time>
      </trkpt>
      <trkpt lat="44.70018" lon="4.32002">
        <ele>663</ele>
        <time>2022-10-24T16:58:18Z</time>
      </trkpt>
      <trkpt lat="44.70002" lon="4.31998">
        <ele>660</ele>
        <time>2022-10-24T16:58:18Z</time>
      </trkpt>
      <trkpt lat="44.69988" lon="4.31996">
        <ele>657</ele>
        <time>2022-10-24T16:58:18Z</time>
      </trkpt>
      <trkpt lat="44.6998" lon="4.31992">
        <ele>656</ele>
        <time>2022-10-24T16:58:18Z</time>
      </trkpt>
      <trkpt lat="44.69934" lon="4.31946">
        <ele>652</ele>
        <time>2022-10-24T16:58:18Z</time>
      </trkpt>
      <trkpt lat="44.69918" lon="4.31935">
        <ele>649</ele>
        <time>2022-10-24T16:58:18Z</time>
      </trkpt>
      <trkpt lat="44.69906" lon="4.31914">
        <ele>648</ele>
        <time>2022-10-24T16:58:18Z</time>
      </trkpt>
      <trkpt lat="44.69904" lon="4.31893">
        <ele>648</ele>
        <time>2022-10-24T16:58:18Z</time>
      </trkpt>
      <trkpt lat="44.69905" lon="4.31858">
        <ele>644</ele>
        <time>2022-10-24T16:58:18Z</time>
      </trkpt>
      <trkpt lat="44.69897" lon="4.3185">
        <ele>639</ele>
        <time>2022-10-24T16:58:18Z</time>
      </trkpt>
      <trkpt lat="44.69878" lon="4.31854">
        <ele>628</ele>
        <time>2022-10-24T16:58:18Z</time>
      </trkpt>
      <trkpt lat="44.6988" lon="4.31866">
        <ele>628</ele>
        <time>2022-10-24T16:58:18Z</time>
      </trkpt>
      <trkpt lat="44.69878" lon="4.31889">
        <ele>628</ele>
        <time>2022-10-24T16:58:18Z</time>
      </trkpt>
      <trkpt lat="44.69871" lon="4.31887">
        <ele>622</ele>
        <time>2022-10-24T16:58:18Z</time>
      </trkpt>
      <trkpt lat="44.69866" lon="4.31878">
        <ele>621</ele>
        <time>2022-10-24T16:58:18Z</time>
      </trkpt>
      <trkpt lat="44.69862" lon="4.31861">
        <ele>620</ele>
        <time>2022-10-24T16:58:18Z</time>
      </trkpt>
      <trkpt lat="44.69857" lon="4.31831">
        <ele>618</ele>
        <time>2022-10-24T16:58:18Z</time>
      </trkpt>
      <trkpt lat="44.69853" lon="4.31821">
        <ele>618</ele>
        <time>2022-10-24T16:58:18Z</time>
      </trkpt>
      <trkpt lat="44.69846" lon="4.31821">
        <ele>615</ele>
        <time>2022-10-24T16:58:18Z</time>
      </trkpt>
      <trkpt lat="44.6984" lon="4.31838">
        <ele>612</ele>
        <time>2022-10-24T16:58:18Z</time>
      </trkpt>
      <trkpt lat="44.69836" lon="4.31861">
        <ele>608</ele>
        <time>2022-10-24T16:58:18Z</time>
      </trkpt>
      <trkpt lat="44.69838" lon="4.3185">
        <ele>609</ele>
        <time>2022-10-24T16:58:18Z</time>
      </trkpt>
      <trkpt lat="44.6984" lon="4.3184">
        <ele>611</ele>
        <time>2022-10-24T16:58:18Z</time>
      </trkpt>
      <trkpt lat="44.69843" lon="4.3183">
        <ele>613</ele>
        <time>2022-10-24T16:58:18Z</time>
      </trkpt>
      <trkpt lat="44.69847" lon="4.31815">
        <ele>615</ele>
        <time>2022-10-24T16:58:18Z</time>
      </trkpt>
      <trkpt lat="44.69853" lon="4.31821">
        <ele>618</ele>
        <time>2022-10-24T16:58:18Z</time>
      </trkpt>
      <trkpt lat="44.69857" lon="4.31831">
        <ele>618</ele>
        <time>2022-10-24T16:58:18Z</time>
      </trkpt>
      <trkpt lat="44.69864" lon="4.3187">
        <ele>619</ele>
        <time>2022-10-24T16:58:18Z</time>
      </trkpt>
      <trkpt lat="44.69867" lon="4.31883">
        <ele>621</ele>
        <time>2022-10-24T16:58:18Z</time>
      </trkpt>
      <trkpt lat="44.69872" lon="4.31891">
        <ele>623</ele>
        <time>2022-10-24T16:58:18Z</time>
      </trkpt>
      <trkpt lat="44.69877" lon="4.31919">
        <ele>625</ele>
        <time>2022-10-24T16:58:18Z</time>
      </trkpt>
      <trkpt lat="44.69881" lon="4.31934">
        <ele>627</ele>
        <time>2022-10-24T16:58:18Z</time>
      </trkpt>
      <trkpt lat="44.6989" lon="4.31949">
        <ele>628</ele>
        <time>2022-10-24T16:58:18Z</time>
      </trkpt>
      <trkpt lat="44.69912" lon="4.31975">
        <ele>630</ele>
        <time>2022-10-24T16:58:18Z</time>
      </trkpt>
      <trkpt lat="44.69925" lon="4.3199">
        <ele>638</ele>
        <time>2022-10-24T16:58:18Z</time>
      </trkpt>
      <trkpt lat="44.69982" lon="4.32033">
        <ele>639</ele>
        <time>2022-10-24T16:58:18Z</time>
      </trkpt>
      <trkpt lat="44.70004" lon="4.32058">
        <ele>634</ele>
        <time>2022-10-24T16:58:18Z</time>
      </trkpt>
      <trkpt lat="44.70047" lon="4.32098">
        <ele>637</ele>
        <time>2022-10-24T16:58:18Z</time>
      </trkpt>
      <trkpt lat="44.70075" lon="4.32113">
        <ele>640</ele>
        <time>2022-10-24T16:58:18Z</time>
      </trkpt>
      <trkpt lat="44.70097" lon="4.32108">
        <ele>636</ele>
        <time>2022-10-24T16:58:18Z</time>
      </trkpt>
      <trkpt lat="44.70133" lon="4.32082">
        <ele>635</ele>
        <time>2022-10-24T16:58:18Z</time>
      </trkpt>
      <trkpt lat="44.7017" lon="4.32072">
        <ele>631</ele>
        <time>2022-10-24T16:58:18Z</time>
      </trkpt>
      <trkpt lat="44.70245" lon="4.3213">
        <ele>632</ele>
        <time>2022-10-24T16:58:18Z</time>
      </trkpt>
      <trkpt lat="44.70272" lon="4.32137">
        <ele>637</ele>
        <time>2022-10-24T16:58:18Z</time>
      </trkpt>
      <trkpt lat="44.703" lon="4.32131">
        <ele>633</ele>
        <time>2022-10-24T16:58:18Z</time>
      </trkpt>
      <trkpt lat="44.70322" lon="4.32114">
        <ele>631</ele>
        <time>2022-10-24T16:58:18Z</time>
      </trkpt>
      <trkpt lat="44.70334" lon="4.32113">
        <ele>626</ele>
        <time>2022-10-24T16:58:18Z</time>
      </trkpt>
      <trkpt lat="44.70342" lon="4.32109">
        <ele>623</ele>
        <time>2022-10-24T16:58:18Z</time>
      </trkpt>
      <trkpt lat="44.70355" lon="4.32065">
        <ele>616</ele>
        <time>2022-10-24T16:58:18Z</time>
      </trkpt>
      <trkpt lat="44.70362" lon="4.31988">
        <ele>611</ele>
        <time>2022-10-24T16:58:18Z</time>
      </trkpt>
      <trkpt lat="44.70363" lon="4.31944">
        <ele>608</ele>
        <time>2022-10-24T16:58:18Z</time>
      </trkpt>
      <trkpt lat="44.70376" lon="4.3192">
        <ele>606</ele>
        <time>2022-10-24T16:58:18Z</time>
      </trkpt>
      <trkpt lat="44.70411" lon="4.31871">
        <ele>600</ele>
        <time>2022-10-24T16:58:18Z</time>
      </trkpt>
      <trkpt lat="44.70416" lon="4.3188">
        <ele>598</ele>
        <time>2022-10-24T16:58:18Z</time>
      </trkpt>
      <trkpt lat="44.70432" lon="4.31882">
        <ele>590</ele>
        <time>2022-10-24T16:58:18Z</time>
      </trkpt>
      <trkpt lat="44.70447" lon="4.3193">
        <ele>585</ele>
        <time>2022-10-24T16:58:18Z</time>
      </trkpt>
      <trkpt lat="44.70464" lon="4.31963">
        <ele>587</ele>
        <time>2022-10-24T16:58:18Z</time>
      </trkpt>
      <trkpt lat="44.7048" lon="4.31979">
        <ele>586</ele>
        <time>2022-10-24T16:58:18Z</time>
      </trkpt>
      <trkpt lat="44.70507" lon="4.31991">
        <ele>589</ele>
        <time>2022-10-24T16:58:18Z</time>
      </trkpt>
      <trkpt lat="44.70538" lon="4.3201">
        <ele>592</ele>
        <time>2022-10-24T16:58:18Z</time>
      </trkpt>
      <trkpt lat="44.70562" lon="4.32012">
        <ele>592</ele>
        <time>2022-10-24T16:58:18Z</time>
      </trkpt>
      <trkpt lat="44.70588" lon="4.31983">
        <ele>591</ele>
        <time>2022-10-24T16:58:18Z</time>
      </trkpt>
      <trkpt lat="44.70612" lon="4.31974">
        <ele>593</ele>
        <time>2022-10-24T16:58:18Z</time>
      </trkpt>
      <trkpt lat="44.70632" lon="4.3198">
        <ele>596</ele>
        <time>2022-10-24T16:58:18Z</time>
      </trkpt>
      <trkpt lat="44.70657" lon="4.31978">
        <ele>601</ele>
        <time>2022-10-24T16:58:18Z</time>
      </trkpt>
      <trkpt lat="44.7068" lon="4.31957">
        <ele>601</ele>
        <time>2022-10-24T16:58:18Z</time>
      </trkpt>
      <trkpt lat="44.70702" lon="4.31927">
        <ele>595</ele>
        <time>2022-10-24T16:58:18Z</time>
      </trkpt>
      <trkpt lat="44.70725" lon="4.31911">
        <ele>593</ele>
        <time>2022-10-24T16:58:18Z</time>
      </trkpt>
      <trkpt lat="44.70758" lon="4.31906">
        <ele>580</ele>
        <time>2022-10-24T16:58:18Z</time>
      </trkpt>
      <trkpt lat="44.70824" lon="4.31942">
        <ele>579</ele>
        <time>2022-10-24T16:58:18Z</time>
      </trkpt>
      <trkpt lat="44.70903" lon="4.32002">
        <ele>568</ele>
        <time>2022-10-24T16:58:18Z</time>
      </trkpt>
      <trkpt lat="44.70921" lon="4.32027">
        <ele>563</ele>
        <time>2022-10-24T16:58:18Z</time>
      </trkpt>
      <trkpt lat="44.70966" lon="4.32032">
        <ele>562</ele>
        <time>2022-10-24T16:58:18Z</time>
      </trkpt>
      <trkpt lat="44.70992" lon="4.32035">
        <ele>560</ele>
        <time>2022-10-24T16:58:18Z</time>
      </trkpt>
      <trkpt lat="44.71006" lon="4.3203">
        <ele>559</ele>
        <time>2022-10-24T16:58:18Z</time>
      </trkpt>
      <trkpt lat="44.71065" lon="4.3199">
        <ele>553</ele>
        <time>2022-10-24T16:58:18Z</time>
      </trkpt>
      <trkpt lat="44.71096" lon="4.31952">
        <ele>547</ele>
        <time>2022-10-24T16:58:18Z</time>
      </trkpt>
      <trkpt lat="44.71119" lon="4.31919">
        <ele>537</ele>
        <time>2022-10-24T16:58:18Z</time>
      </trkpt>
      <trkpt lat="44.71121" lon="4.31934">
        <ele>537</ele>
        <time>2022-10-24T16:58:18Z</time>
      </trkpt>
      <trkpt lat="44.71122" lon="4.31972">
        <ele>533</ele>
        <time>2022-10-24T16:58:18Z</time>
      </trkpt>
      <trkpt lat="44.71136" lon="4.31937">
        <ele>529</ele>
        <time>2022-10-24T16:58:18Z</time>
      </trkpt>
      <trkpt lat="44.71138" lon="4.31926">
        <ele>529</ele>
        <time>2022-10-24T16:58:18Z</time>
      </trkpt>
      <trkpt lat="44.71141" lon="4.31897">
        <ele>527</ele>
        <time>2022-10-24T16:58:18Z</time>
      </trkpt>
      <trkpt lat="44.71148" lon="4.31861">
        <ele>525</ele>
        <time>2022-10-24T16:58:18Z</time>
      </trkpt>
      <trkpt lat="44.71152" lon="4.31816">
        <ele>521</ele>
        <time>2022-10-24T16:58:18Z</time>
      </trkpt>
      <trkpt lat="44.71153" lon="4.3179">
        <ele>518</ele>
        <time>2022-10-24T16:58:18Z</time>
      </trkpt>
      <trkpt lat="44.71158" lon="4.31786">
        <ele>518</ele>
        <time>2022-10-24T16:58:18Z</time>
      </trkpt>
      <trkpt lat="44.71163" lon="4.31807">
        <ele>518</ele>
        <time>2022-10-24T16:58:18Z</time>
      </trkpt>
      <trkpt lat="44.71164" lon="4.31823">
        <ele>517</ele>
        <time>2022-10-24T16:58:18Z</time>
      </trkpt>
      <trkpt lat="44.71174" lon="4.3183">
        <ele>511</ele>
        <time>2022-10-24T16:58:18Z</time>
      </trkpt>
      <trkpt lat="44.7118" lon="4.31849">
        <ele>508</ele>
        <time>2022-10-24T16:58:18Z</time>
      </trkpt>
      <trkpt lat="44.71185" lon="4.31891">
        <ele>507</ele>
        <time>2022-10-24T16:58:18Z</time>
      </trkpt>
      <trkpt lat="44.7119" lon="4.31917">
        <ele>504</ele>
        <time>2022-10-24T16:58:18Z</time>
      </trkpt>
      <trkpt lat="44.71201" lon="4.3193">
        <ele>501</ele>
        <time>2022-10-24T16:58:18Z</time>
      </trkpt>
      <trkpt lat="44.71207" lon="4.3194">
        <ele>498</ele>
        <time>2022-10-24T16:58:18Z</time>
      </trkpt>
      <trkpt lat="44.71212" lon="4.31955">
        <ele>499</ele>
        <time>2022-10-24T16:58:18Z</time>
      </trkpt>
      <trkpt lat="44.71212" lon="4.31974">
        <ele>499</ele>
        <time>2022-10-24T16:58:18Z</time>
      </trkpt>
      <trkpt lat="44.71217" lon="4.31985">
        <ele>499</ele>
        <time>2022-10-24T16:58:18Z</time>
      </trkpt>
      <trkpt lat="44.71224" lon="4.32018">
        <ele>499</ele>
        <time>2022-10-24T16:58:18Z</time>
      </trkpt>
      <trkpt lat="44.71231" lon="4.3207">
        <ele>500</ele>
        <time>2022-10-24T16:58:18Z</time>
      </trkpt>
      <trkpt lat="44.71249" lon="4.32093">
        <ele>501</ele>
        <time>2022-10-24T16:58:18Z</time>
      </trkpt>
      <trkpt lat="44.71254" lon="4.32115">
        <ele>503</ele>
        <time>2022-10-24T16:58:18Z</time>
      </trkpt>
      <trkpt lat="44.71263" lon="4.32115">
        <ele>504</ele>
        <time>2022-10-24T16:58:18Z</time>
      </trkpt>
      <trkpt lat="44.71268" lon="4.32103">
        <ele>505</ele>
        <time>2022-10-24T16:58:18Z</time>
      </trkpt>
      <trkpt lat="44.71275" lon="4.32095">
        <ele>506</ele>
        <time>2022-10-24T16:58:18Z</time>
      </trkpt>
      <trkpt lat="44.71305" lon="4.32088">
        <ele>507</ele>
        <time>2022-10-24T16:58:18Z</time>
      </trkpt>
      <trkpt lat="44.71342" lon="4.32062">
        <ele>511</ele>
        <time>2022-10-24T16:58:18Z</time>
      </trkpt>
      <trkpt lat="44.71361" lon="4.32045">
        <ele>511</ele>
        <time>2022-10-24T16:58:18Z</time>
      </trkpt>
      <trkpt lat="44.71371" lon="4.32047">
        <ele>514</ele>
        <time>2022-10-24T16:58:18Z</time>
      </trkpt>
      <trkpt lat="44.71381" lon="4.32039">
        <ele>519</ele>
        <time>2022-10-24T16:58:18Z</time>
      </trkpt>
      <trkpt lat="44.71389" lon="4.32029">
        <ele>518</ele>
        <time>2022-10-24T16:58:18Z</time>
      </trkpt>
      <trkpt lat="44.7141" lon="4.32026">
        <ele>525</ele>
        <time>2022-10-24T16:58:18Z</time>
      </trkpt>
      <trkpt lat="44.71438" lon="4.32014">
        <ele>528</ele>
        <time>2022-10-24T16:58:18Z</time>
      </trkpt>
      <trkpt lat="44.71452" lon="4.32014">
        <ele>529</ele>
        <time>2022-10-24T16:58:18Z</time>
      </trkpt>
      <trkpt lat="44.71471" lon="4.32012">
        <ele>533</ele>
        <time>2022-10-24T16:58:18Z</time>
      </trkpt>
      <trkpt lat="44.71485" lon="4.32006">
        <ele>533</ele>
        <time>2022-10-24T16:58:18Z</time>
      </trkpt>
      <trkpt lat="44.71499" lon="4.32006">
        <ele>535</ele>
        <time>2022-10-24T16:58:18Z</time>
      </trkpt>
      <trkpt lat="44.71513" lon="4.32013">
        <ele>540</ele>
        <time>2022-10-24T16:58:18Z</time>
      </trkpt>
      <trkpt lat="44.71523" lon="4.32029">
        <ele>546</ele>
        <time>2022-10-24T16:58:18Z</time>
      </trkpt>
      <trkpt lat="44.71526" lon="4.32043">
        <ele>547</ele>
        <time>2022-10-24T16:58:18Z</time>
      </trkpt>
      <trkpt lat="44.71529" lon="4.32063">
        <ele>552</ele>
        <time>2022-10-24T16:58:18Z</time>
      </trkpt>
      <trkpt lat="44.71536" lon="4.32076">
        <ele>549</ele>
        <time>2022-10-24T16:58:18Z</time>
      </trkpt>
      <trkpt lat="44.71544" lon="4.32086">
        <ele>547</ele>
        <time>2022-10-24T16:58:18Z</time>
      </trkpt>
      <trkpt lat="44.71557" lon="4.32087">
        <ele>550</ele>
        <time>2022-10-24T16:58:18Z</time>
      </trkpt>
      <trkpt lat="44.71581" lon="4.32069">
        <ele>550</ele>
        <time>2022-10-24T16:58:18Z</time>
      </trkpt>
      <trkpt lat="44.71589" lon="4.32062">
        <ele>552</ele>
        <time>2022-10-24T16:58:18Z</time>
      </trkpt>
      <trkpt lat="44.71597" lon="4.32054">
        <ele>557</ele>
        <time>2022-10-24T16:58:18Z</time>
      </trkpt>
      <trkpt lat="44.71603" lon="4.3204">
        <ele>558</ele>
        <time>2022-10-24T16:58:18Z</time>
      </trkpt>
      <trkpt lat="44.71616" lon="4.32012">
        <ele>554</ele>
        <time>2022-10-24T16:58:18Z</time>
      </trkpt>
      <trkpt lat="44.71632" lon="4.31989">
        <ele>549</ele>
        <time>2022-10-24T16:58:18Z</time>
      </trkpt>
      <trkpt lat="44.71641" lon="4.31982">
        <ele>553</ele>
        <time>2022-10-24T16:58:18Z</time>
      </trkpt>
      <trkpt lat="44.71643" lon="4.31966">
        <ele>549</ele>
        <time>2022-10-24T16:58:18Z</time>
      </trkpt>
      <trkpt lat="44.71647" lon="4.31949">
        <ele>545</ele>
        <time>2022-10-24T16:58:18Z</time>
      </trkpt>
      <trkpt lat="44.71654" lon="4.31946">
        <ele>546</ele>
        <time>2022-10-24T16:58:18Z</time>
      </trkpt>
      <trkpt lat="44.71662" lon="4.31946">
        <ele>550</ele>
        <time>2022-10-24T16:58:18Z</time>
      </trkpt>
      <trkpt lat="44.71671" lon="4.31947">
        <ele>553</ele>
        <time>2022-10-24T16:58:18Z</time>
      </trkpt>
      <trkpt lat="44.71684" lon="4.31952">
        <ele>559</ele>
        <time>2022-10-24T16:58:18Z</time>
      </trkpt>
      <trkpt lat="44.71691" lon="4.31964">
        <ele>563</ele>
        <time>2022-10-24T16:58:18Z</time>
      </trkpt>
      <trkpt lat="44.71701" lon="4.31961">
        <ele>565</ele>
        <time>2022-10-24T16:58:18Z</time>
      </trkpt>
      <trkpt lat="44.71709" lon="4.31961">
        <ele>564</ele>
        <time>2022-10-24T16:58:18Z</time>
      </trkpt>
      <trkpt lat="44.71722" lon="4.31958">
        <ele>562</ele>
        <time>2022-10-24T16:58:18Z</time>
      </trkpt>
      <trkpt lat="44.7173" lon="4.31983">
        <ele>573</ele>
        <time>2022-10-24T16:58:18Z</time>
      </trkpt>
      <trkpt lat="44.71741" lon="4.31978">
        <ele>579</ele>
        <time>2022-10-24T16:58:18Z</time>
      </trkpt>
      <trkpt lat="44.71751" lon="4.31962">
        <ele>584</ele>
        <time>2022-10-24T16:58:18Z</time>
      </trkpt>
      <trkpt lat="44.71757" lon="4.31948">
        <ele>586</ele>
        <time>2022-10-24T16:58:18Z</time>
      </trkpt>
      <trkpt lat="44.71758" lon="4.31927">
        <ele>587</ele>
        <time>2022-10-24T16:58:18Z</time>
      </trkpt>
      <trkpt lat="44.71766" lon="4.319">
        <ele>586</ele>
        <time>2022-10-24T16:58:18Z</time>
      </trkpt>
      <trkpt lat="44.71783" lon="4.31876">
        <ele>589</ele>
        <time>2022-10-24T16:58:18Z</time>
      </trkpt>
      <trkpt lat="44.718" lon="4.31858">
        <ele>595</ele>
        <time>2022-10-24T16:58:18Z</time>
      </trkpt>
      <trkpt lat="44.71816" lon="4.3185">
        <ele>598</ele>
        <time>2022-10-24T16:58:18Z</time>
      </trkpt>
      <trkpt lat="44.71825" lon="4.31849">
        <ele>598</ele>
        <time>2022-10-24T16:58:18Z</time>
      </trkpt>
      <trkpt lat="44.7184" lon="4.31858">
        <ele>598</ele>
        <time>2022-10-24T16:58:18Z</time>
      </trkpt>
      <trkpt lat="44.71849" lon="4.31872">
        <ele>600</ele>
        <time>2022-10-24T16:58:18Z</time>
      </trkpt>
      <trkpt lat="44.71857" lon="4.31889">
        <ele>603</ele>
        <time>2022-10-24T16:58:18Z</time>
      </trkpt>
      <trkpt lat="44.71874" lon="4.31908">
        <ele>604</ele>
        <time>2022-10-24T16:58:18Z</time>
      </trkpt>
      <trkpt lat="44.71888" lon="4.31923">
        <ele>609</ele>
        <time>2022-10-24T16:58:18Z</time>
      </trkpt>
      <trkpt lat="44.71909" lon="4.31932">
        <ele>605</ele>
        <time>2022-10-24T16:58:18Z</time>
      </trkpt>
      <trkpt lat="44.71929" lon="4.3195">
        <ele>612</ele>
        <time>2022-10-24T16:58:18Z</time>
      </trkpt>
      <trkpt lat="44.71944" lon="4.31968">
        <ele>616</ele>
        <time>2022-10-24T16:58:18Z</time>
      </trkpt>
      <trkpt lat="44.71955" lon="4.31975">
        <ele>617</ele>
        <time>2022-10-24T16:58:18Z</time>
      </trkpt>
      <trkpt lat="44.7197" lon="4.31979">
        <ele>621</ele>
        <time>2022-10-24T16:58:18Z</time>
      </trkpt>
      <trkpt lat="44.71978" lon="4.31979">
        <ele>623</ele>
        <time>2022-10-24T16:58:18Z</time>
      </trkpt>
      <trkpt lat="44.71998" lon="4.31977">
        <ele>623</ele>
        <time>2022-10-24T16:58:18Z</time>
      </trkpt>
      <trkpt lat="44.72017" lon="4.3197">
        <ele>624</ele>
        <time>2022-10-24T16:58:18Z</time>
      </trkpt>
      <trkpt lat="44.72025" lon="4.31966">
        <ele>628</ele>
        <time>2022-10-24T16:58:18Z</time>
      </trkpt>
      <trkpt lat="44.7204" lon="4.31954">
        <ele>632</ele>
        <time>2022-10-24T16:58:18Z</time>
      </trkpt>
      <trkpt lat="44.72047" lon="4.31936">
        <ele>631</ele>
        <time>2022-10-24T16:58:18Z</time>
      </trkpt>
      <trkpt lat="44.72053" lon="4.31917">
        <ele>627</ele>
        <time>2022-10-24T16:58:18Z</time>
      </trkpt>
      <trkpt lat="44.72062" lon="4.31908">
        <ele>628</ele>
        <time>2022-10-24T16:58:18Z</time>
      </trkpt>
      <trkpt lat="44.72072" lon="4.3191">
        <ele>632</ele>
        <time>2022-10-24T16:58:18Z</time>
      </trkpt>
      <trkpt lat="44.72089" lon="4.31916">
        <ele>631</ele>
        <time>2022-10-24T16:58:18Z</time>
      </trkpt>
      <trkpt lat="44.72102" lon="4.31907">
        <ele>632</ele>
        <time>2022-10-24T16:58:18Z</time>
      </trkpt>
      <trkpt lat="44.72093" lon="4.31884">
        <ele>631</ele>
        <time>2022-10-24T16:58:18Z</time>
      </trkpt>
      <trkpt lat="44.72087" lon="4.31864">
        <ele>634</ele>
        <time>2022-10-24T16:58:18Z</time>
      </trkpt>
      <trkpt lat="44.72076" lon="4.31847">
        <ele>637</ele>
        <time>2022-10-24T16:58:18Z</time>
      </trkpt>
      <trkpt lat="44.72054" lon="4.31819">
        <ele>638</ele>
        <time>2022-10-24T16:58:18Z</time>
      </trkpt>
      <trkpt lat="44.72038" lon="4.31791">
        <ele>629</ele>
        <time>2022-10-24T16:58:18Z</time>
      </trkpt>
      <trkpt lat="44.72022" lon="4.31781">
        <ele>625</ele>
        <time>2022-10-24T16:58:18Z</time>
      </trkpt>
      <trkpt lat="44.72014" lon="4.31766">
        <ele>624</ele>
        <time>2022-10-24T16:58:18Z</time>
      </trkpt>
      <trkpt lat="44.72011" lon="4.31754">
        <ele>624</ele>
        <time>2022-10-24T16:58:18Z</time>
      </trkpt>
      <trkpt lat="44.72009" lon="4.31733">
        <ele>622</ele>
        <time>2022-10-24T16:58:18Z</time>
      </trkpt>
      <trkpt lat="44.72009" lon="4.31719">
        <ele>619</ele>
        <time>2022-10-24T16:58:18Z</time>
      </trkpt>
      <trkpt lat="44.72018" lon="4.31701">
        <ele>616</ele>
        <time>2022-10-24T16:58:18Z</time>
      </trkpt>
      <trkpt lat="44.72046" lon="4.31666">
        <ele>613</ele>
        <time>2022-10-24T16:58:18Z</time>
      </trkpt>
      <trkpt lat="44.72064" lon="4.3164">
        <ele>608</ele>
        <time>2022-10-24T16:58:18Z</time>
      </trkpt>
      <trkpt lat="44.72075" lon="4.31628">
        <ele>606</ele>
        <time>2022-10-24T16:58:18Z</time>
      </trkpt>
      <trkpt lat="44.72118" lon="4.31579">
        <ele>602</ele>
        <time>2022-10-24T16:58:18Z</time>
      </trkpt>
      <trkpt lat="44.72129" lon="4.31568">
        <ele>600</ele>
        <time>2022-10-24T16:58:18Z</time>
      </trkpt>
      <trkpt lat="44.72171" lon="4.31534">
        <ele>607</ele>
        <time>2022-10-24T16:58:18Z</time>
      </trkpt>
      <trkpt lat="44.72187" lon="4.31514">
        <ele>606</ele>
        <time>2022-10-24T16:58:18Z</time>
      </trkpt>
      <trkpt lat="44.72221" lon="4.31474">
        <ele>596</ele>
        <time>2022-10-24T16:58:18Z</time>
      </trkpt>
      <trkpt lat="44.72311" lon="4.31369">
        <ele>596</ele>
        <time>2022-10-24T16:58:18Z</time>
      </trkpt>
      <trkpt lat="44.7233" lon="4.3135">
        <ele>593</ele>
        <time>2022-10-24T16:58:18Z</time>
      </trkpt>
      <trkpt lat="44.72342" lon="4.31327">
        <ele>595</ele>
        <time>2022-10-24T16:58:18Z</time>
      </trkpt>
      <trkpt lat="44.72346" lon="4.31292">
        <ele>597</ele>
        <time>2022-10-24T16:58:18Z</time>
      </trkpt>
      <trkpt lat="44.72365" lon="4.31226">
        <ele>598</ele>
        <time>2022-10-24T16:58:18Z</time>
      </trkpt>
      <trkpt lat="44.72372" lon="4.31214">
        <ele>601</ele>
        <time>2022-10-24T16:58:18Z</time>
      </trkpt>
      <trkpt lat="44.72417" lon="4.31159">
        <ele>606</ele>
        <time>2022-10-24T16:58:18Z</time>
      </trkpt>
      <trkpt lat="44.72457" lon="4.31127">
        <ele>609</ele>
        <time>2022-10-24T16:58:18Z</time>
      </trkpt>
      <trkpt lat="44.72468" lon="4.31112">
        <ele>608</ele>
        <time>2022-10-24T16:58:18Z</time>
      </trkpt>
      <trkpt lat="44.72501" lon="4.31095">
        <ele>609</ele>
        <time>2022-10-24T16:58:18Z</time>
      </trkpt>
      <trkpt lat="44.72521" lon="4.31089">
        <ele>606</ele>
        <time>2022-10-24T16:58:18Z</time>
      </trkpt>
      <trkpt lat="44.72564" lon="4.31081">
        <ele>608</ele>
        <time>2022-10-24T16:58:18Z</time>
      </trkpt>
      <trkpt lat="44.72571" lon="4.31075">
        <ele>607</ele>
        <time>2022-10-24T16:58:18Z</time>
      </trkpt>
      <trkpt lat="44.72575" lon="4.31061">
        <ele>606</ele>
        <time>2022-10-24T16:58:18Z</time>
      </trkpt>
      <trkpt lat="44.72573" lon="4.31047">
        <ele>608</ele>
        <time>2022-10-24T16:58:18Z</time>
      </trkpt>
      <trkpt lat="44.72558" lon="4.31025">
        <ele>609</ele>
        <time>2022-10-24T16:58:18Z</time>
      </trkpt>
      <trkpt lat="44.72546" lon="4.31008">
        <ele>611</ele>
        <time>2022-10-24T16:58:18Z</time>
      </trkpt>
      <trkpt lat="44.72539" lon="4.30989">
        <ele>611</ele>
        <time>2022-10-24T16:58:18Z</time>
      </trkpt>
      <trkpt lat="44.72539" lon="4.30976">
        <ele>611</ele>
        <time>2022-10-24T16:58:18Z</time>
      </trkpt>
      <trkpt lat="44.72541" lon="4.30964">
        <ele>610</ele>
        <time>2022-10-24T16:58:18Z</time>
      </trkpt>
      <trkpt lat="44.72547" lon="4.30953">
        <ele>608</ele>
        <time>2022-10-24T16:58:18Z</time>
      </trkpt>
      <trkpt lat="44.72553" lon="4.30946">
        <ele>607</ele>
        <time>2022-10-24T16:58:18Z</time>
      </trkpt>
      <trkpt lat="44.72554" lon="4.30931">
        <ele>606</ele>
        <time>2022-10-24T16:58:18Z</time>
      </trkpt>
      <trkpt lat="44.72549" lon="4.30892">
        <ele>605</ele>
        <time>2022-10-24T16:58:18Z</time>
      </trkpt>
      <trkpt lat="44.72534" lon="4.30815">
        <ele>603</ele>
        <time>2022-10-24T16:58:18Z</time>
      </trkpt>
      <trkpt lat="44.72519" lon="4.30791">
        <ele>605</ele>
        <time>2022-10-24T16:58:18Z</time>
      </trkpt>
      <trkpt lat="44.72513" lon="4.30785">
        <ele>605</ele>
        <time>2022-10-24T16:58:18Z</time>
      </trkpt>
      <trkpt lat="44.72503" lon="4.30781">
        <ele>605</ele>
        <time>2022-10-24T16:58:18Z</time>
      </trkpt>
      <trkpt lat="44.72494" lon="4.30775">
        <ele>607</ele>
        <time>2022-10-24T16:58:18Z</time>
      </trkpt>
      <trkpt lat="44.72481" lon="4.30759">
        <ele>605</ele>
        <time>2022-10-24T16:58:18Z</time>
      </trkpt>
      <trkpt lat="44.72475" lon="4.30746">
        <ele>607</ele>
        <time>2022-10-24T16:58:18Z</time>
      </trkpt>
      <trkpt lat="44.72472" lon="4.30732">
        <ele>608</ele>
        <time>2022-10-24T16:58:18Z</time>
      </trkpt>
      <trkpt lat="44.72471" lon="4.307">
        <ele>607</ele>
        <time>2022-10-24T16:58:18Z</time>
      </trkpt>
      <trkpt lat="44.72474" lon="4.30675">
        <ele>604</ele>
        <time>2022-10-24T16:58:18Z</time>
      </trkpt>
      <trkpt lat="44.72475" lon="4.30647">
        <ele>599</ele>
        <time>2022-10-24T16:58:18Z</time>
      </trkpt>
      <trkpt lat="44.72457" lon="4.30629">
        <ele>615</ele>
        <time>2022-10-24T16:58:18Z</time>
      </trkpt>
      <trkpt lat="44.72449" lon="4.30615">
        <ele>614</ele>
        <time>2022-10-24T16:58:18Z</time>
      </trkpt>
      <trkpt lat="44.7244" lon="4.30616">
        <ele>613</ele>
        <time>2022-10-24T16:58:18Z</time>
      </trkpt>
      <trkpt lat="44.72435" lon="4.3063">
        <ele>613</ele>
        <time>2022-10-24T16:58:18Z</time>
      </trkpt>
      <trkpt lat="44.72426" lon="4.30654">
        <ele>615</ele>
        <time>2022-10-24T16:58:18Z</time>
      </trkpt>
      <trkpt lat="44.72393" lon="4.30724">
        <ele>612</ele>
        <time>2022-10-24T16:58:18Z</time>
      </trkpt>
      <trkpt lat="44.7237" lon="4.30774">
        <ele>610</ele>
        <time>2022-10-24T16:58:18Z</time>
      </trkpt>
      <trkpt lat="44.72369" lon="4.30788">
        <ele>611</ele>
        <time>2022-10-24T16:58:18Z</time>
      </trkpt>
      <trkpt lat="44.72377" lon="4.30848">
        <ele>612</ele>
        <time>2022-10-24T16:58:18Z</time>
      </trkpt>
      <trkpt lat="44.72378" lon="4.3088">
        <ele>614</ele>
        <time>2022-10-24T16:58:18Z</time>
      </trkpt>
      <trkpt lat="44.72375" lon="4.30892">
        <ele>615</ele>
        <time>2022-10-24T16:58:18Z</time>
      </trkpt>
      <trkpt lat="44.72365" lon="4.30898">
        <ele>614</ele>
        <time>2022-10-24T16:58:18Z</time>
      </trkpt>
      <trkpt lat="44.7232" lon="4.30926">
        <ele>620</ele>
        <time>2022-10-24T16:58:18Z</time>
      </trkpt>
      <trkpt lat="44.72285" lon="4.30932">
        <ele>621</ele>
        <time>2022-10-24T16:58:18Z</time>
      </trkpt>
      <trkpt lat="44.72256" lon="4.30943">
        <ele>623</ele>
        <time>2022-10-24T16:58:18Z</time>
      </trkpt>
      <trkpt lat="44.72193" lon="4.31041">
        <ele>627</ele>
        <time>2022-10-24T16:58:18Z</time>
      </trkpt>
      <trkpt lat="44.7217" lon="4.3106">
        <ele>625</ele>
        <time>2022-10-24T16:58:18Z</time>
      </trkpt>
      <trkpt lat="44.72145" lon="4.31087">
        <ele>622</ele>
        <time>2022-10-24T16:58:18Z</time>
      </trkpt>
      <trkpt lat="44.72106" lon="4.31144">
        <ele>634</ele>
        <time>2022-10-24T16:58:18Z</time>
      </trkpt>
      <trkpt lat="44.72051" lon="4.31222">
        <ele>638</ele>
        <time>2022-10-24T16:58:18Z</time>
      </trkpt>
      <trkpt lat="44.72031" lon="4.31234">
        <ele>642</ele>
        <time>2022-10-24T16:58:18Z</time>
      </trkpt>
      <trkpt lat="44.72018" lon="4.31223">
        <ele>642</ele>
        <time>2022-10-24T16:58:18Z</time>
      </trkpt>
      <trkpt lat="44.72003" lon="4.31181">
        <ele>637</ele>
        <time>2022-10-24T16:58:18Z</time>
      </trkpt>
      <trkpt lat="44.71983" lon="4.31027">
        <ele>637</ele>
        <time>2022-10-24T16:58:18Z</time>
      </trkpt>
      <trkpt lat="44.71973" lon="4.31021">
        <ele>634</ele>
        <time>2022-10-24T16:58:18Z</time>
      </trkpt>
      <trkpt lat="44.71957" lon="4.31028">
        <ele>642</ele>
        <time>2022-10-24T16:58:18Z</time>
      </trkpt>
      <trkpt lat="44.71938" lon="4.31046">
        <ele>642</ele>
        <time>2022-10-24T16:58:18Z</time>
      </trkpt>
      <trkpt lat="44.71918" lon="4.31063">
        <ele>644</ele>
        <time>2022-10-24T16:58:18Z</time>
      </trkpt>
      <trkpt lat="44.71901" lon="4.3108">
        <ele>637</ele>
        <time>2022-10-24T16:58:18Z</time>
      </trkpt>
      <trkpt lat="44.71852" lon="4.31112">
        <ele>637</ele>
        <time>2022-10-24T16:58:18Z</time>
      </trkpt>
      <trkpt lat="44.71831" lon="4.31123">
        <ele>639</ele>
        <time>2022-10-24T16:58:18Z</time>
      </trkpt>
      <trkpt lat="44.71801" lon="4.31141">
        <ele>641</ele>
        <time>2022-10-24T16:58:18Z</time>
      </trkpt>
      <trkpt lat="44.71788" lon="4.31137">
        <ele>642</ele>
        <time>2022-10-24T16:58:18Z</time>
      </trkpt>
      <trkpt lat="44.71754" lon="4.31108">
        <ele>643</ele>
        <time>2022-10-24T16:58:18Z</time>
      </trkpt>
      <trkpt lat="44.71737" lon="4.31089">
        <ele>644</ele>
        <time>2022-10-24T16:58:18Z</time>
      </trkpt>
      <trkpt lat="44.7172" lon="4.31081">
        <ele>641</ele>
        <time>2022-10-24T16:58:18Z</time>
      </trkpt>
      <trkpt lat="44.71714" lon="4.3107">
        <ele>641</ele>
        <time>2022-10-24T16:58:18Z</time>
      </trkpt>
      <trkpt lat="44.71711" lon="4.31044">
        <ele>645</ele>
        <time>2022-10-24T16:58:18Z</time>
      </trkpt>
      <trkpt lat="44.71722" lon="4.30985">
        <ele>646</ele>
        <time>2022-10-24T16:58:18Z</time>
      </trkpt>
      <trkpt lat="44.7172" lon="4.30969">
        <ele>647</ele>
        <time>2022-10-24T16:58:18Z</time>
      </trkpt>
      <trkpt lat="44.71707" lon="4.30973">
        <ele>650</ele>
        <time>2022-10-24T16:58:18Z</time>
      </trkpt>
      <trkpt lat="44.71699" lon="4.30985">
        <ele>649</ele>
        <time>2022-10-24T16:58:18Z</time>
      </trkpt>
      <trkpt lat="44.71693" lon="4.31">
        <ele>646</ele>
        <time>2022-10-24T16:58:18Z</time>
      </trkpt>
      <trkpt lat="44.71646" lon="4.31044">
        <ele>648</ele>
        <time>2022-10-24T16:58:18Z</time>
      </trkpt>
      <trkpt lat="44.71634" lon="4.3105">
        <ele>648</ele>
        <time>2022-10-24T16:58:18Z</time>
      </trkpt>
      <trkpt lat="44.71626" lon="4.31061">
        <ele>647</ele>
        <time>2022-10-24T16:58:18Z</time>
      </trkpt>
      <trkpt lat="44.7163" lon="4.31084">
        <ele>649</ele>
        <time>2022-10-24T16:58:18Z</time>
      </trkpt>
      <trkpt lat="44.71631" lon="4.31103">
        <ele>651</ele>
        <time>2022-10-24T16:58:18Z</time>
      </trkpt>
      <trkpt lat="44.71641" lon="4.3113">
        <ele>652</ele>
        <time>2022-10-24T16:58:18Z</time>
      </trkpt>
      <trkpt lat="44.71642" lon="4.31147">
        <ele>651</ele>
        <time>2022-10-24T16:58:18Z</time>
      </trkpt>
      <trkpt lat="44.71636" lon="4.31204">
        <ele>653</ele>
        <time>2022-10-24T16:58:18Z</time>
      </trkpt>
      <trkpt lat="44.7163" lon="4.31252">
        <ele>656</ele>
        <time>2022-10-24T16:58:18Z</time>
      </trkpt>
      <trkpt lat="44.71625" lon="4.31273">
        <ele>656</ele>
        <time>2022-10-24T16:58:18Z</time>
      </trkpt>
      <trkpt lat="44.71616" lon="4.3129">
        <ele>657</ele>
        <time>2022-10-24T16:58:18Z</time>
      </trkpt>
      <trkpt lat="44.71592" lon="4.31322">
        <ele>657</ele>
        <time>2022-10-24T16:58:18Z</time>
      </trkpt>
      <trkpt lat="44.71552" lon="4.31355">
        <ele>657</ele>
        <time>2022-10-24T16:58:18Z</time>
      </trkpt>
      <trkpt lat="44.71532" lon="4.31368">
        <ele>659</ele>
        <time>2022-10-24T16:58:18Z</time>
      </trkpt>
      <trkpt lat="44.71483" lon="4.31395">
        <ele>660</ele>
        <time>2022-10-24T16:58:18Z</time>
      </trkpt>
      <trkpt lat="44.71443" lon="4.31411">
        <ele>661</ele>
        <time>2022-10-24T16:58:18Z</time>
      </trkpt>
      <trkpt lat="44.71439" lon="4.31405">
        <ele>663</ele>
        <time>2022-10-24T16:58:18Z</time>
      </trkpt>
      <trkpt lat="44.71456" lon="4.31396">
        <ele>666</ele>
        <time>2022-10-24T16:58:18Z</time>
      </trkpt>
      <trkpt lat="44.71476" lon="4.31381">
        <ele>668</ele>
        <time>2022-10-24T16:58:18Z</time>
      </trkpt>
      <trkpt lat="44.71493" lon="4.31366">
        <ele>671</ele>
        <time>2022-10-24T16:58:18Z</time>
      </trkpt>
      <trkpt lat="44.71512" lon="4.31347">
        <ele>674</ele>
        <time>2022-10-24T16:58:18Z</time>
      </trkpt>
      <trkpt lat="44.71526" lon="4.31328">
        <ele>676</ele>
        <time>2022-10-24T16:58:18Z</time>
      </trkpt>
      <trkpt lat="44.71545" lon="4.313">
        <ele>679</ele>
        <time>2022-10-24T16:58:18Z</time>
      </trkpt>
      <trkpt lat="44.71553" lon="4.31287">
        <ele>681</ele>
        <time>2022-10-24T16:58:18Z</time>
      </trkpt>
      <trkpt lat="44.71565" lon="4.31257">
        <ele>684</ele>
        <time>2022-10-24T16:58:18Z</time>
      </trkpt>
      <trkpt lat="44.71569" lon="4.31242">
        <ele>685</ele>
        <time>2022-10-24T16:58:18Z</time>
      </trkpt>
      <trkpt lat="44.71569" lon="4.31226">
        <ele>687</ele>
        <time>2022-10-24T16:58:18Z</time>
      </trkpt>
      <trkpt lat="44.71563" lon="4.31176">
        <ele>692</ele>
        <time>2022-10-24T16:58:18Z</time>
      </trkpt>
      <trkpt lat="44.71555" lon="4.3113">
        <ele>695</ele>
        <time>2022-10-24T16:58:18Z</time>
      </trkpt>
      <trkpt lat="44.71547" lon="4.31114">
        <ele>697</ele>
        <time>2022-10-24T16:58:18Z</time>
      </trkpt>
      <trkpt lat="44.71541" lon="4.31122">
        <ele>698</ele>
        <time>2022-10-24T16:58:18Z</time>
      </trkpt>
      <trkpt lat="44.71544" lon="4.31136">
        <ele>698</ele>
        <time>2022-10-24T16:58:18Z</time>
      </trkpt>
      <trkpt lat="44.71543" lon="4.3115">
        <ele>699</ele>
        <time>2022-10-24T16:58:18Z</time>
      </trkpt>
      <trkpt lat="44.71535" lon="4.31187">
        <ele>702</ele>
        <time>2022-10-24T16:58:18Z</time>
      </trkpt>
      <trkpt lat="44.7153" lon="4.31204">
        <ele>704</ele>
        <time>2022-10-24T16:58:18Z</time>
      </trkpt>
      <trkpt lat="44.71512" lon="4.31229">
        <ele>707</ele>
        <time>2022-10-24T16:58:18Z</time>
      </trkpt>
      <trkpt lat="44.71504" lon="4.31232">
        <ele>707</ele>
        <time>2022-10-24T16:58:18Z</time>
      </trkpt>
      <trkpt lat="44.71499" lon="4.31223">
        <ele>708</ele>
        <time>2022-10-24T16:58:18Z</time>
      </trkpt>
      <trkpt lat="44.71511" lon="4.31197">
        <ele>710</ele>
        <time>2022-10-24T16:58:18Z</time>
      </trkpt>
      <trkpt lat="44.71515" lon="4.31167">
        <ele>712</ele>
        <time>2022-10-24T16:58:18Z</time>
      </trkpt>
      <trkpt lat="44.71513" lon="4.31142">
        <ele>714</ele>
        <time>2022-10-24T16:58:18Z</time>
      </trkpt>
      <trkpt lat="44.71509" lon="4.31121">
        <ele>716</ele>
        <time>2022-10-24T16:58:18Z</time>
      </trkpt>
      <trkpt lat="44.71503" lon="4.31093">
        <ele>719</ele>
        <time>2022-10-24T16:58:18Z</time>
      </trkpt>
      <trkpt lat="44.71488" lon="4.31022">
        <ele>724</ele>
        <time>2022-10-24T16:58:18Z</time>
      </trkpt>
      <trkpt lat="44.71489" lon="4.31008">
        <ele>725</ele>
        <time>2022-10-24T16:58:18Z</time>
      </trkpt>
      <trkpt lat="44.71501" lon="4.30933">
        <ele>732</ele>
        <time>2022-10-24T16:58:18Z</time>
      </trkpt>
      <trkpt lat="44.71504" lon="4.30917">
        <ele>735</ele>
        <time>2022-10-24T16:58:18Z</time>
      </trkpt>
      <trkpt lat="44.71511" lon="4.30908">
        <ele>734</ele>
        <time>2022-10-24T16:58:18Z</time>
      </trkpt>
      <trkpt lat="44.71527" lon="4.30896">
        <ele>736</ele>
        <time>2022-10-24T16:58:18Z</time>
      </trkpt>
      <trkpt lat="44.71545" lon="4.30885">
        <ele>738</ele>
        <time>2022-10-24T16:58:18Z</time>
      </trkpt>
      <trkpt lat="44.71562" lon="4.30873">
        <ele>740</ele>
        <time>2022-10-24T16:58:18Z</time>
      </trkpt>
      <trkpt lat="44.71571" lon="4.30862">
        <ele>740</ele>
        <time>2022-10-24T16:58:18Z</time>
      </trkpt>
      <trkpt lat="44.71587" lon="4.3084">
        <ele>743</ele>
        <time>2022-10-24T16:58:18Z</time>
      </trkpt>
      <trkpt lat="44.7163" lon="4.30781">
        <ele>748</ele>
        <time>2022-10-24T16:58:18Z</time>
      </trkpt>
      <trkpt lat="44.71655" lon="4.30745">
        <ele>752</ele>
        <time>2022-10-24T16:58:18Z</time>
      </trkpt>
      <trkpt lat="44.7166" lon="4.30734">
        <ele>753</ele>
        <time>2022-10-24T16:58:18Z</time>
      </trkpt>
      <trkpt lat="44.71662" lon="4.30723">
        <ele>755</ele>
        <time>2022-10-24T16:58:18Z</time>
      </trkpt>
      <trkpt lat="44.71663" lon="4.30696">
        <ele>757</ele>
        <time>2022-10-24T16:58:18Z</time>
      </trkpt>
      <trkpt lat="44.71661" lon="4.30683">
        <ele>758</ele>
        <time>2022-10-24T16:58:18Z</time>
      </trkpt>
      <trkpt lat="44.71658" lon="4.30669">
        <ele>760</ele>
        <time>2022-10-24T16:58:18Z</time>
      </trkpt>
      <trkpt lat="44.71654" lon="4.30647">
        <ele>762</ele>
        <time>2022-10-24T16:58:18Z</time>
      </trkpt>
      <trkpt lat="44.71652" lon="4.30659">
        <ele>762</ele>
        <time>2022-10-24T16:58:18Z</time>
      </trkpt>
      <trkpt lat="44.71652" lon="4.30682">
        <ele>763</ele>
        <time>2022-10-24T16:58:18Z</time>
      </trkpt>
      <trkpt lat="44.7163" lon="4.3074">
        <ele>763</ele>
        <time>2022-10-24T16:58:18Z</time>
      </trkpt>
      <trkpt lat="44.71597" lon="4.30783">
        <ele>761</ele>
        <time>2022-10-24T16:58:18Z</time>
      </trkpt>
      <trkpt lat="44.71585" lon="4.30798">
        <ele>759</ele>
        <time>2022-10-24T16:58:18Z</time>
      </trkpt>
      <trkpt lat="44.7157" lon="4.30817">
        <ele>757</ele>
        <time>2022-10-24T16:58:18Z</time>
      </trkpt>
      <trkpt lat="44.71535" lon="4.30859">
        <ele>752</ele>
        <time>2022-10-24T16:58:18Z</time>
      </trkpt>
      <trkpt lat="44.71523" lon="4.30868">
        <ele>751</ele>
        <time>2022-10-24T16:58:18Z</time>
      </trkpt>
      <trkpt lat="44.71501" lon="4.30887">
        <ele>748</ele>
        <time>2022-10-24T16:58:18Z</time>
      </trkpt>
      <trkpt lat="44.71471" lon="4.3095">
        <ele>744</ele>
        <time>2022-10-24T16:58:18Z</time>
      </trkpt>
      <trkpt lat="44.71443" lon="4.30986">
        <ele>741</ele>
        <time>2022-10-24T16:58:18Z</time>
      </trkpt>
      <trkpt lat="44.71435" lon="4.30988">
        <ele>740</ele>
        <time>2022-10-24T16:58:18Z</time>
      </trkpt>
      <trkpt lat="44.71428" lon="4.30982">
        <ele>739</ele>
        <time>2022-10-24T16:58:18Z</time>
      </trkpt>
      <trkpt lat="44.71424" lon="4.30967">
        <ele>739</ele>
        <time>2022-10-24T16:58:18Z</time>
      </trkpt>
      <trkpt lat="44.71418" lon="4.30954">
        <ele>734</ele>
        <time>2022-10-24T16:58:18Z</time>
      </trkpt>
      <trkpt lat="44.71415" lon="4.30907">
        <ele>734</ele>
        <time>2022-10-24T16:58:18Z</time>
      </trkpt>
      <trkpt lat="44.7141" lon="4.30898">
        <ele>733</ele>
        <time>2022-10-24T16:58:18Z</time>
      </trkpt>
      <trkpt lat="44.71393" lon="4.30874">
        <ele>729</ele>
        <time>2022-10-24T16:58:18Z</time>
      </trkpt>
      <trkpt lat="44.71366" lon="4.30846">
        <ele>726</ele>
        <time>2022-10-24T16:58:18Z</time>
      </trkpt>
      <trkpt lat="44.71348" lon="4.30833">
        <ele>722</ele>
        <time>2022-10-24T16:58:18Z</time>
      </trkpt>
      <trkpt lat="44.71331" lon="4.3082">
        <ele>719</ele>
        <time>2022-10-24T16:58:18Z</time>
      </trkpt>
      <trkpt lat="44.71321" lon="4.30811">
        <ele>717</ele>
        <time>2022-10-24T16:58:18Z</time>
      </trkpt>
      <trkpt lat="44.71314" lon="4.30799">
        <ele>714</ele>
        <time>2022-10-24T16:58:18Z</time>
      </trkpt>
      <trkpt lat="44.71305" lon="4.30781">
        <ele>711</ele>
        <time>2022-10-24T16:58:18Z</time>
      </trkpt>
      <trkpt lat="44.71296" lon="4.30756">
        <ele>706</ele>
        <time>2022-10-24T16:58:18Z</time>
      </trkpt>
      <trkpt lat="44.71292" lon="4.30732">
        <ele>703</ele>
        <time>2022-10-24T16:58:18Z</time>
      </trkpt>
      <trkpt lat="44.7129" lon="4.30711">
        <ele>701</ele>
        <time>2022-10-24T16:58:18Z</time>
      </trkpt>
      <trkpt lat="44.71278" lon="4.30686">
        <ele>699</ele>
        <time>2022-10-24T16:58:18Z</time>
      </trkpt>
      <trkpt lat="44.71265" lon="4.30679">
        <ele>693</ele>
        <time>2022-10-24T16:58:18Z</time>
      </trkpt>
      <trkpt lat="44.71256" lon="4.30684">
        <ele>691</ele>
        <time>2022-10-24T16:58:18Z</time>
      </trkpt>
      <trkpt lat="44.71242" lon="4.3069">
        <ele>688</ele>
        <time>2022-10-24T16:58:18Z</time>
      </trkpt>
      <trkpt lat="44.71233" lon="4.30691">
        <ele>688</ele>
        <time>2022-10-24T16:58:18Z</time>
      </trkpt>
      <trkpt lat="44.71209" lon="4.30696">
        <ele>685</ele>
        <time>2022-10-24T16:58:18Z</time>
      </trkpt>
      <trkpt lat="44.71193" lon="4.3069">
        <ele>683</ele>
        <time>2022-10-24T16:58:18Z</time>
      </trkpt>
      <trkpt lat="44.71182" lon="4.30685">
        <ele>681</ele>
        <time>2022-10-24T16:58:18Z</time>
      </trkpt>
      <trkpt lat="44.71169" lon="4.3068">
        <ele>678</ele>
        <time>2022-10-24T16:58:18Z</time>
      </trkpt>
      <trkpt lat="44.71144" lon="4.30683">
        <ele>674</ele>
        <time>2022-10-24T16:58:18Z</time>
      </trkpt>
      <trkpt lat="44.71134" lon="4.30688">
        <ele>673</ele>
        <time>2022-10-24T16:58:18Z</time>
      </trkpt>
      <trkpt lat="44.71127" lon="4.30698">
        <ele>669</ele>
        <time>2022-10-24T16:58:18Z</time>
      </trkpt>
      <trkpt lat="44.71112" lon="4.30695">
        <ele>667</ele>
        <time>2022-10-24T16:58:18Z</time>
      </trkpt>
      <trkpt lat="44.71095" lon="4.30692">
        <ele>665</ele>
        <time>2022-10-24T16:58:18Z</time>
      </trkpt>
      <trkpt lat="44.71084" lon="4.30669">
        <ele>665</ele>
        <time>2022-10-24T16:58:18Z</time>
      </trkpt>
      <trkpt lat="44.71081" lon="4.30657">
        <ele>665</ele>
        <time>2022-10-24T16:58:18Z</time>
      </trkpt>
      <trkpt lat="44.71083" lon="4.30646">
        <ele>663</ele>
        <time>2022-10-24T16:58:18Z</time>
      </trkpt>
      <trkpt lat="44.71101" lon="4.30618">
        <ele>667</ele>
        <time>2022-10-24T16:58:18Z</time>
      </trkpt>
      <trkpt lat="44.71105" lon="4.30634">
        <ele>668</ele>
        <time>2022-10-24T16:58:18Z</time>
      </trkpt>
      <trkpt lat="44.71108" lon="4.3065">
        <ele>670</ele>
        <time>2022-10-24T16:58:18Z</time>
      </trkpt>
      <trkpt lat="44.71112" lon="4.30663">
        <ele>672</ele>
        <time>2022-10-24T16:58:18Z</time>
      </trkpt>
      <trkpt lat="44.71122" lon="4.30673">
        <ele>674</ele>
        <time>2022-10-24T16:58:18Z</time>
      </trkpt>
      <trkpt lat="44.7113" lon="4.30672">
        <ele>675</ele>
        <time>2022-10-24T16:58:18Z</time>
      </trkpt>
    </trkseg>
  </trk>
</gpx>